Regional Weather Roundup
Issued by NWS Columbia, SC

Home | Current Version | Previous Version | Text Only | Print | Product List | Glossary On
Versions: 1 2 3 4 5 6 7 8 9 10 11 12 13 14 15 16 17 18 19 20 21 22 23 24 25 26 27 28 29 30 31 32 33 34 35 36 37 38 39 40 41 42 43 44 45 46 47 48 49 50
000
ASUS42 KCAE 221610
RWRCAE
REGIONAL WEATHER ROUNDUP
NATIONAL WEATHER SERVICE COLUMBIA SC
1200 PM EDT MON MAY 22 2017

NOTE: "FAIR" INDICATES FEW OR NO CLOUDS BELOW 12,000 FEET WITH NO
SIGNIFICANT WEATHER AND/OR OBSTRUCTIONS TO VISIBILITY.

NOT ALL STATIONS ARE QUALITY CONTROLLED BY THE NATIONAL
WEATHER SERVICE. USE DATA WITH CAUTION...ESPECIALLY
DEWPOINT OBSERVATIONS.

SCZ001>056-GAZ040-063>065-077-221700-
...UPSTATE SOUTH CAROLINA...

CITY           SKY/WX    TMP DP  RH WIND       PRES   REMARKS
ANDERSON       PTSUNNY   77  67  71 NW5       30.06F
SPARTANBURG    PTSUNNY   73  64  73 CALM      30.06F
CLEMSON        PTSUNNY   76  66  71 CALM      30.08S
GREENVILLE     CLOUDY    75  66  73 S6        30.08F
GREENWOOD      CLOUDY    78  68  71 N3        30.06F
GREER          CLOUDY    73  65  75 W6        30.06F
ROCK HILL      CLOUDY    73  66  78 CALM      30.08F
CHESTER        CLOUDY    73  64  73 CALM      30.08F
LAURENS        MOSUNNY   75  68  78 CALM      30.06F


...CENTRAL SOUTH CAROLINA...

CITY           SKY/WX    TMP DP  RH WIND       PRES   REMARKS
COLUMBIA APT   PTSUNNY   84  69  60 SW3       30.03F
COLUMBIA OWENS MOSUNNY   82  69  64 VRB3      30.05F
MCENTIRE ANGB  MOSUNNY   82  71  68 S3        30.05F
ORANGEBURG     MOSUNNY   82  70  66 S6        30.05F
SUMTER SHAW    PTSUNNY   82  70  67 W8        30.03F
NEWBERRY       PTSUNNY   77  70  78 CALM      30.08F
AIKEN          FAIR      81  68  65 S3        30.07F
BARNWELL       PTSUNNY   84  70  61 SW7       30.04F
MANNING        PTSUNNY   81  73  78 S5        30.05F
CAMDEN         PTSUNNY   79  70  73 CALM      30.06F
LANCASTER      CLOUDY    75  72  88 SE5       30.07F
WINNSBORO      PTSUNNY   77  70  78 SW3       30.06F


...EASTERN AND COASTAL SOUTH CAROLINA...

CITY           SKY/WX    TMP DP  RH WIND       PRES   REMARKS
MYRTLE BEACH   PTSUNNY   81  72  74 S14       30.07F
N MYRTLE BCH   PTSUNNY   81  71  71 S14       30.06F
CONWAY         PTSUNNY   81  70  69 W7        30.06F HAZE
MARION         FAIR      79  70  73 SW6       30.05F
HARTSVILLE     PTSUNNY   79  70  73 W3        30.05F
FLORENCE       MOSUNNY   81  71  71 W6        30.05F
DARLINGTON     PTSUNNY   82  71  69 SW6       30.05F
CHARLESTON APT CLOUDY    82  70  66 SW8       30.05F
MOUNT PLEASANT FAIR      82  72  69 SW10      30.06F
WALTERBORO     CLOUDY    81  70  69 W3        30.07F
BEAUFORT       PTSUNNY   85  70  60 VRB5      30.06F


...EASTERN GEORGIA...

CITY           SKY/WX    TMP DP  RH WIND       PRES   REMARKS
AUGUSTA BUSH F CLOUDY    87  68  52 S6        30.03F
AUGUSTA DANIEL CLOUDY    84  64  50 S8        30.05F
THOMSON        MOSUNNY   82  68  60 W6        30.09F
WASHINGTON     FAIR      82  72  69 NW5       30.04F
CLAXTON        FAIR      83  78  85 CALM      30.05F
SYLVANIA       CLOUDY    86  71  61 SW3       30.06F
STATESBORO     CLOUDY    83  71  67 CALM      30.05F
SAVANNAH       PTSUNNY   86  68  54 S6        30.05F


...SOUTHERN NORTH CAROLINA...

CITY           SKY/WX    TMP DP  RH WIND       PRES   REMARKS
CHARLOTTE      PTSUNNY   76  66  71 VRB7      30.07F
MONROE         CLOUDY    75  66  73 N5        30.06F
WADESBORO      PTSUNNY   77  67  72 CALM      30.06F
ROCKINGHAM     PTSUNNY   77  70  79 W7        30.06F
RUTHERFORDTON  CLOUDY    71  68  90 SW9       30.09S
ASHEVILLE      PTSUNNY   73  61  65 N8        30.11F

$$



USA.gov is the U.S. government's official web portal to all federal, state and local government web resources and services.